CZ-6A DEB, 54443

Orbit data source: Space-Track

CZ-6A DEB, 54443 is space debris in SSO originally from a launch on Fri, 11 Nov 2022 UTC launched from the Taiyaun Space Center, China (TSC). Debris objects in space refer to the collection of defunct objects orbiting the Earth. Examples of debris include non-operational satellites, rocket bodies, and fragments generated from explosions, collisions, or faulty payload assembly.

Loading next visibility...
Identifier
54443, 2022-151FT
Orbit
SSO
Country
Flag of CNCN / PRC
Related business
Manufacturer
SAST
Mission
Spacecraft
Bus & Motor
Unknown
Mass
Unknown
Launch date (UTC)
2022-11-11 (4 years ago)
Launch vehicle
Unknown
Launch site
Taiyaun Space Center, China (TSC)
Object type
Payload
Rocket body
Debris
Shape & HBR
Unknown shape, 0.2 m
Radar Cross Section
Medium (>0.1 m² and <1 m²)

Expand to show TLE details & history
Last TLE update: 2 days ago

TLE from 2 days ago
0 CZ-6A DEB
1 54443U 22151FT  26171.32755838  .00000999  00000-0  47033-3 0  9996
2 54443  98.8079 193.3676 0015439 304.3518  55.6198 14.22148705186399
Epoch: 2026-06-20T07:51Z
TLE epoch observation values (Epoch: 2026-06-20T07:51:41.044Z)
Latitude
-0.00002°
Longitude
166.90282°
Altitude
814.746 km
Speed
7.449 km/s
True Right ascension
12h 53m 28s
True Declination
0° 00' 00"
Sunlit
Object was in daylight at epoch
Visualization orbit readout
Latitude
Unknown
Longitude
Unknown
Altitude
Unknown
Speed
Unknown
Apparent Right ascension
Unknown
Apparent Declination
Unknown
Sunlit
N/A
Visualization observer readout
Local Sidereal Time
21:33:43
Azimuth
Unknown
Elevation
Unknown
Doppler factor
Unknown
Orbital elements
Apogee altitude
826.362 km
Perigee altitude
804.15 km
Semi-major axis
7,193.393 km
Eccentricity
0.00154
Inclination
98.8079°
RAAN
193.3676°
Arg. of periapsis
304.3518°
True anomaly
55.76597°
Mean anomaly
55.6198°
Eccentric anomaly
55.69287°
Mean motion
3.55748 °/min
Orbital period
101.2 mins
BSTAR
0.00047033
Loading maneuver chart data...
Computing Atmospheric mass density...
Loading historical data...
Loading historical data...
Loading historical data...
Loading historical data...
Loading historical data...
Loading historical data...
Loading historical data...

Documentation

Showing up to 5 results
|